Probability
4 3 2 2 1 0 0 0 0 0 0 0 0 0 0 0 0 0 0 0 0 0 0 0 0 0 0 0 0 0 0 0 0 0 0 0 0 0 0 0 0 0 0 0 0 0 0 0 0
1 1 1 1 0 0 0 0 0 0 0 0 0 0 0 0 0 0 0 0 0 0 0 0 0 0 0 0 0 0 0 0 0 0 0 0 0 0 0 0 0 0 0 0 0 0 0 0 0
0 0 0 0 0 0 0 0 0 0 0 0 0 0 0 0 0 0 0 0 0 0 0 1 2 2 1 1 0 0 0 0 0 0 0 0 0 0 0 0 0 0 0 0 0 0 0 0 0
0 0 0 0 0 0 0 0 0 0 0 0 0 0 0 0 0 0 0 0 0 0 0 2 5 6 5 3 2 1 1 1 0 0 0 0 0 0 0 0 0 0 0 0 0 0 0 0 0
0 0 0 0 0 0 0 0 0 0 0 0 0 0 0 0 0 0 0 0 0 0 0 3 6 7 7 7 6 5 4 3 2 1 0 0 0 0 0 0 0 0 0 0 0 0 0 0 0
0 0 0 0 0 0 0 0 0 0 0 0 0 0 0 0 0 0 0 0 0 0 0 1 2 3 4 6 9 9 7 6 4 2 0 0 0 0 0 0 0 0 0 0 0 0 0 0 0
0 0 0 0 0 0 0 0 0 0 0 0 0 0 0 0 0 0 0 0 0 0 0 0 0 0 1 3 6 8 7 6 5 3 1 0 0 0 0 0 0 0 0 0 0 0 0 0 0
0 0 0 0 0 0 0 0 0 0 0 0 0 0 0 0 0 0 0 0 0 0 0 0 0 0 0 0 2 4 5 5 6 6 3 1 0 0 0 0 0 0 0 0 0 0 0 0 0
0 0 0 0 0 0 0 0 0 0 0 0 0 0 0 0 0 0 0 0 0 0 0 0 0 0 0 0 1 2 2 4 7 7 4 3 3 2 2 1 1 0 0 0 0 0 0 0 0
0 0 0 0 0 0 0 0 0 0 0 0 0 0 0 0 0 0 0 0 0 0 0 0 0 0 0 0 0 0 1 3 5 4 4 5 6 6 5 4 3 1 0 0 0 0 0 0 0
0 0 0 0 0 0 0 0 0 0 0 0 0 0 0 0 0 0 0 0 0 0 0 0 0 0 0 0 0 0 0 2 2 2 3 5 6 7 8 8 6 4 1 0 0 0 0 0 0
0 0 0 0 0 0 0 0 0 0 0 0 0 0 0 0 0 0 0 0 0 0 0 0 0 0 0 0 0 0 0 0 0 1 2 4 6 7 9 12 13 10 6 4 2 1 0 0 0
0 0 0 0 0 0 0 0 0 0 0 0 0 0 0 0 0 0 0 0 0 0 0 0 0 0 0 0 0 0 0 0 0 0 1 3 6 7 9 14 18 17 13 9 6 2 0 0 0
0 0 0 0 0 0 0 0 0 0 0 0 0 0 0 0 0 0 0 0 0 0 0 0 0 0 0 0 0 0 0 1 1 1 1 3 6 9 10 12 17 19 17 15 10 4 1 0 0
0 0 0 0 0 0 0 0 0 0 0 0 0 0 0 0 0 0 0 0 0 0 0 0 0 0 0 0 0 0 0 1 2 2 2 2 4 8 10 11 13 16 19 18 14 8 4 3 2
0 0 0 0 0 0 0 0 0 0 0 0 0 0 0 0 0 0 0 0 0 0 0 0 0 0 0 0 0 0 0 0 1 2 2 1 2 4 8 11 13 16 20 22 18 13 11 9 7
0 0 0 0 0 0 0 0 0 0 0 0 0 0 0 0 0 0 0 0 0 0 0 0 0 0 0 0 0 0 0 0 0 1 2 1 0 1 5 11 16 19 25 28 25 21 19 14 11
0 0 0 0 0 0 0 0 0 0 0 0 0 0 0 0 0 0 0 0 0 0 0 0 0 0 0 0 0 0 0 0 0 1 2 1 1 1 4 8 15 24 31 34 33 28 24 18 13
0 0 0 0 0 0 0 0 0 0 0 0 0 0 0 0 0 0 0 0 0 0 0 0 0 0 0 0 0 0 0 0 0 0 1 1 1 2 4 6 12 23 32 35 35 33 29 22 17
0 0 0 0 0 0 0 0 0 0 0 0 0 0 0 0 0 0 0 0 0 0 0 0 0 0 0 0 0 0 0 0 0 0 0 0 1 2 3 5 7 15 24 30 33 35 33 27 23
0 0 0 0 0 0 0 0 0 0 0 0 0 0 0 0 0 0 0 0 0 0 0 0 0 0 0 0 0 0 0 0 0 0 0 0 0 1 1 3 4 7 14 22 27 32 35 32 27
0 0 0 0 0 0 0 0 0 0 0 0 0 0 0 0 0 0 0 0 0 0 0 0 0 0 0 0 0 0 0 0 0 0 0 0 0 0 0 1 2 4 7 13 18 24 31 34 30
0 0 0 0 0 0 0 0 0 0 0 0 0 0 0 0 0 0 0 0 0 0 0 0 0 0 0 0 0 0 0 0 0 0 0 0 0 0 0 0 1 3 5 7 11 17 24 28 26
0 0 0 0 0 0 0 0 0 0 0 0 0 0 0 0 0 0 0 0 0 0 0 0 0 0 0 0 0 0 0 0 0 0 0 0 0 0 0 0 1 2 3 4 6 11 16 19 19
0 0 0 0 0 0 0 0 0 0 0 0 0 0 0 0 0 0 0 0 0 0 0 0 0 0 0 0 0 0 0 0 0 0 0 0 0 0 0 0 0 1 3 3 4 6 11 15 15
0 0 0 0 0 0 0 0 0 0 0 0 0 0 0 0 0 0 0 0 0 0 0 0 0 0 0 0 0 0 0 0 0 0 0 0 0 0 0 0 0 1 2 3 3 4 8 13 14
0 0 0 0 0 0 0 0 0 0 0 0 0 0 0 0 0 0 0 0 0 0 0 0 0 0 0 0 0 0 0 0 0 0 0 0 0 0 0 0 0 0 1 2 3 4 6 10 13
0 0 0 0 0 0 0 0 0 0 0 0 0 0 0 0 0 0 0 0 0 0 0 0 0 0 0 0 0 0 0 0 0 0 0 0 0 0 0 0 0 0 0 1 3 3 4 6 7
0 0 0 0 0 0 0 0 0 0 0 0 0 0 0 0 0 0 0 0 0 0 0 0 0 0 0 0 0 0 0 0 0 0 0 0 0 0 0 0 0 0 0 1 2 2 3 3 2
0 0 0 0 0 0 0 0 0 0 0 0 0 0 0 0 0 0 0 0 0 0 0 0 0 0 0 0 0 0 0 0 0 0 0 0 0 0 0 0 0 0 0 0 1 1 1 1 0
Wind_Speed
10 7 4 3 5 2 7 6 5 5 5 7 6 4 6 8 7 6 5 3 2 5 7 9 7 7 7 7 7 7 6 6 6 6 6 6 6 5 5 4 4 3 3 3 2 2 2 2 2
8 6 4 4 3 5 7 6 8 8 6 3 4 5 6 9 8 6 4 3 2 5 5 5 6 6 6 6 6 7 7 6 6 6 6 6 6 5 5 5 4 4 3 3 3 2 2 2 2
8 5 4 2 2 5 6 5 6 6 7 4 4 6 7 7 7 6 6 2 2 3 3 3 2 4 5 6 7 7 7 7 7 7 7 7 6 6 6 5 5 5 4 3 3 2 2 2 1
5 4 4 1 6 6 4 4 4 2 5 7 4 7 8 7 7 7 6 4 3 3 2 4 3 1 3 4 5 6 7 7 8 8 7 7 7 7 7 6 6 5 5 4 3 3 3 2 2
4 4 2 3 5 5 4 4 4 4 4 6 5 7 7 7 8 8 7 6 5 5 5 5 8 7 5 4 5 6 7 8 8 8 8 8 8 8 8 7 7 6 6 5 4 4 4 3 2
3 4 1 3 5 4 4 3 3 5 6 5 5 6 7 7 9 8 8 8 7 7 6 6 8 9 9 8 8 7 8 8 8 8 9 9 9 9 9 8 8 7 7 6 5 5 4 4 3
4 2 1 3 4 4 4 3 4 4 6 7 4 4 6 8 8 7 7 8 8 8 7 7 7 7 7 8 9 9 9 8 9 9 9 10 10 10 10 9 9 9 8 8 7 6 5 5 4
3 2 2 2 3 4 4 4 4 5 6 5 4 4 5 7 6 6 7 8 8 8 8 7 6 6 6 6 8 9 9 9 8 8 9 10 11 11 11 11 11 10 9 9 8 8 7 6 5
4 3 1 1 1 4 5 4 4 4 7 7 7 8 6 5 4 6 6 7 7 8 7 6 6 6 5 5 6 7 7 7 7 6 8 9 8 10 9 12 9 10 10 10 9 9 8 7 8
3 1 3 3 2 5 5 4 5 4 6 7 8 8 6 4 5 6 7 8 8 8 7 6 5 5 5 5 4 4 4 4 4 4 6 5 6 6 8 6 9 10 11 11 11 10 9 10 8
1 3 5 4 4 6 6 5 3 4 4 5 6 6 5 4 6 7 7 7 8 7 7 7 7 6 6 4 4 3 3 3 4 5 5 5 5 5 6 5 6 9 11 9 9 10 9 9 6
4 5 4 6 4 4 5 6 5 3 6 6 6 4 3 4 5 6 7 7 7 8 8 8 9 8 7 6 5 5 3 3 3 4 5 4 4 4 5 5 6 5 5 6 6 6 8 8 8
5 6 5 6 6 6 6 6 5 6 6 6 5 4 3 4 5 5 6 7 7 8 9 9 9 9 8 7 6 6 5 4 5 4 5 5 4 5 5 5 5 6 5 6 6 7 7 7 7
7 9 8 6 6 5 6 6 5 6 6 6 4 3 2 3 4 5 6 7 8 9 9 9 10 9 9 8 7 6 6 5 6 5 6 7 5 5 6 6 6 5 5 5 6 7 6 6 6
9 8 7 5 4 4 5 5 4 7 7 6 4 2 1 2 3 5 6 8 9 9 9 9 9 9 10 9 9 6 6 6 6 5 7 7 6 6 6 6 5 5 5 6 5 7 6 6 6
6 6 5 5 4 4 6 4 7 7 7 5 3 2 1 1 3 4 6 7 8 9 10 9 8 10 10 9 8 7 6 6 6 5 6 7 7 7 6 6 6 5 5 5 5 5 5 6 6
7 6 3 5 5 4 6 4 6 7 7 6 4 3 3 2 3 4 6 7 8 9 9 9 10 10 10 9 8 7 6 6 6 5 5 6 7 7 7 6 6 6 5 5 6 5 5 5 5
4 5 4 2 4 6 7 5 4 7 8 7 5 4 4 4 4 5 6 7 7 8 9 9 9 9 9 7 7 6 6 6 5 5 5 6 6 7 7 6 7 6 6 6 6 6 5 5 4
2 4 3 2 2 5 7 7 5 7 8 8 7 6 5 4 4 4 5 6 7 8 9 9 9 9 8 7 7 7 7 6 6 5 6 6 6 6 7 6 6 5 6 7 8 7 7 5 4
2 3 2 3 1 5 6 8 5 6 8 8 8 7 5 5 5 4 6 6 7 8 9 9 9 9 9 7 7 6 7 6 6 5 6 6 6 6 6 6 5 6 6 7 8 8 6 5 6
1 2 1 1 3 4 6 6 5 5 7 7 8 7 6 5 7 6 7 7 7 8 9 8 9 9 8 8 6 6 5 5 5 6 6 6 7 6 6 6 6 6 6 6 7 8 9 6 6
2 2 1 2 5 1 3 4 3 2 5 7 8 7 6 4 5 5 6 7 7 8 8 8 8 9 8 8 7 9 7 7 7 6 6 7 6 6 5 6 7 7 6 7 8 8 8 8 6
4 3 2 3 5 5 4 6 2 2 2 2 3 5 5 4 4 5 5 6 7 7 7 7 8 8 8 8 7 8 7 7 7 7 7 7 6 6 6 6 6 7 6 7 7 7 9 8 8
6 5 4 4 6 5 1 5 1 1 2 2 0 2 3 3 3 4 4 5 5 6 5 6 6 7 7 7 7 8 9 9 9 9 8 7 6 5 6 6 6 6 6 7 7 7 9 9 10
6 6 4 6 5 1 2 5 3 3 2 4 3 2 2 3 4 4 4 5 5 6 6 6 6 6 7 7 7 7 8 8 8 9 8 8 6 6 7 6 6 6 6 7 7 7 8 10 11
2 5 5 4 2 1 4 5 1 2 2 3 4 4 3 4 4 4 4 5 5 5 5 6 6 6 6 7 7 7 7 6 6 8 8 7 6 7 8 7 7 7 6 6 6 6 8 8 9
3 1 4 5 2 4 2 2 2 2 3 4 4 5 5 4 4 4 4 5 5 5 5 5 6 6 6 6 7 7 7 7 8 8 8 7 7 7 8 7 7 6 6 6 6 5 7 7 7
4 2 4 5 4 3 1 2 1 0 2 2 3 4 4 4 4 4 4 5 5 5 5 5 5 6 6 6 6 6 7 7 7 8 8 9 9 8 8 7 7 6 6 6 5 5 5 6 6
5 4 3 3 4 5 2 2 3 3 4 5 4 4 4 4 4 4 4 4 5 5 5 5 5 5 5 6 6 7 7 7 8 7 8 8 8 9 8 7 7 6 6 6 5 5 5 6 6
3 3 5 4 2 3 4 1 4 3 5 6 7 5 4 4 5 5 5 5 5 5 5 5 5 5 5 5 6 6 6 7 7 8 8 9 8 8 8 8 7 6 6 6 5 5 5 5 6
Wind_Direction
165 164 179 213 231 135 71 51 40 55 57 51 48 45 50 39 16 42 49 73 90 147 152 157 167 172 173 175 177 180 182 181 180 181 180 181 183 185 188 191 191 187 181 173 166 161 142 116 103
156 158 203 235 248 100 79 56 58 49 46 54 60 53 63 60 38 44 51 47 118 140 156 157 154 184 186 189 195 198 200 199 199 199 197 195 195 196 198 203 206 205 202 196 189 180 175 145 111
159 199 244 242 54 61 82 63 57 62 42 30 65 52 45 34 17 20 21 41 123 128 132 109 150 200 207 211 213 214 215 215 214 212 209 206 204 208 212 214 217 217 216 212 204 199 195 179 157
180 214 229 179 89 67 58 47 12 44 62 37 66 79 75 35 3 11 26 37 86 97 82 75 41 337 259 243 235 231 228 227 226 223 219 216 215 216 219 219 221 223 224 224 220 216 209 201 196
225 244 204 109 94 95 74 36 33 42 60 41 54 89 76 33 26 33 35 36 44 51 43 43 36 18 353 317 284 265 253 242 235 231 229 228 227 226 225 227 227 229 230 232 229 229 224 217 217
234 249 233 111 114 120 98 53 57 60 71 52 49 87 77 39 33 37 42 45 47 43 37 34 39 23 10 356 341 315 288 270 256 246 242 238 236 235 232 231 232 233 234 236 234 234 235 227 225
271 275 27 112 133 134 101 64 42 54 66 44 9 85 98 51 43 46 53 52 51 45 38 27 19 14 5 358 353 341 323 300 279 263 255 252 246 243 240 235 234 234 232 233 235 233 237 232 229
275 251 141 151 152 119 114 103 64 35 69 51 20 60 72 46 54 67 65 59 54 47 38 27 19 10 357 347 350 341 331 322 306 283 263 257 255 250 244 240 230 234 235 233 234 232 233 233 230
251 250 155 128 140 116 137 131 94 81 91 78 68 66 70 69 73 73 68 61 52 43 34 24 12 4 349 334 343 333 326 323 314 295 278 264 255 251 239 239 228 231 239 237 234 232 231 233 219
248 286 65 56 47 122 133 118 122 132 109 101 97 88 87 82 66 55 46 38 34 26 21 12 1 353 341 334 333 315 313 312 303 298 295 277 265 262 263 251 234 235 239 240 236 234 230 234 220
53 68 99 97 91 122 132 122 131 156 107 99 107 103 92 72 56 43 36 28 19 9 7 1 351 344 335 325 316 311 307 305 289 285 287 281 274 262 258 253 232 228 230 232 220 221 227 226 230
107 82 99 113 113 130 132 132 123 71 88 100 97 97 87 60 44 30 21 14 7 4 357 352 345 337 333 328 319 302 302 304 293 284 280 274 270 261 259 252 249 241 230 229 229 231 227 229 228
124 118 100 107 115 117 124 125 118 115 119 121 119 115 76 45 32 29 16 6 2 358 352 351 340 338 333 328 312 305 301 297 290 279 273 264 258 259 256 252 249 246 242 232 231 234 230 229 235
115 121 122 123 126 133 139 133 145 138 151 149 148 129 79 43 19 10 8 1 357 351 349 346 340 339 333 325 316 311 304 294 286 279 271 266 258 253 255 256 250 248 243 241 240 238 234 232 231
135 132 134 143 144 142 176 173 166 147 170 172 174 145 79 32 6 3 2 352 351 346 345 347 338 339 337 331 325 315 303 297 290 286 280 270 264 261 256 255 250 243 243 239 235 239 235 228 225
165 181 187 158 171 166 239 251 143 165 187 193 199 187 244 329 333 357 351 346 347 343 344 345 340 337 336 332 322 315 310 306 294 288 282 277 271 267 263 258 253 247 241 238 228 223 221 225 224
198 237 243 161 186 195 239 274 149 182 205 212 216 234 262 298 331 349 345 344 345 343 342 344 343 337 336 332 321 316 313 308 301 296 293 289 282 275 267 262 260 253 242 233 229 219 215 219 225
243 265 265 211 168 220 241 256 180 196 220 232 234 249 271 309 340 344 340 340 337 339 340 345 342 340 337 333 328 327 323 318 313 307 303 303 291 281 275 264 259 257 245 233 227 218 213 215 217
302 279 286 80 120 242 256 268 233 207 221 233 239 252 281 312 328 341 335 336 335 341 343 346 345 346 343 340 335 334 333 326 324 320 317 307 298 289 275 271 264 254 248 242 233 222 216 211 202
199 253 246 139 136 265 277 274 255 222 231 245 259 266 281 304 315 335 333 341 340 342 344 343 347 348 347 342 330 324 321 317 322 319 318 313 303 296 283 271 265 256 253 248 237 225 218 208 194
150 294 289 209 175 216 283 256 206 206 227 239 249 262 280 296 312 330 336 337 340 345 344 341 344 345 349 343 336 331 327 315 328 332 326 319 310 300 292 287 279 270 259 249 238 227 220 213 203
144 89 172 212 252 234 294 294 150 182 232 237 243 249 261 277 296 318 325 333 340 345 341 338 346 347 350 344 345 343 338 336 333 328 324 318 313 304 294 285 278 272 264 257 246 231 226 218 211
88 114 181 244 265 264 220 272 137 160 260 246 241 247 256 267 293 312 324 330 334 341 339 337 344 347 350 346 344 335 340 336 331 331 331 325 321 314 306 296 285 275 266 260 257 252 235 226 219
138 162 163 211 242 243 157 275 284 109 338 344 268 244 246 256 281 298 314 318 330 339 338 336 339 346 346 342 341 343 341 338 337 339 337 330 324 318 318 307 290 280 273 266 260 255 245 236 228
210 239 225 209 212 178 97 266 290 34 324 292 293 291 258 260 283 298 312 319 329 334 336 331 336 341 344 341 343 345 345 338 337 336 335 331 328 324 324 315 300 291 282 276 269 258 250 240 234
209 273 290 296 305 120 187 253 25 47 297 271 263 263 261 265 279 293 304 309 312 320 327 328 332 336 339 338 342 343 343 336 338 338 334 331 326 323 323 315 306 301 291 280 270 263 255 244 237
195 215 342 295 281 266 201 249 249 178 241 241 248 250 256 264 273 281 292 298 302 308 319 320 321 328 335 335 336 338 341 341 339 337 336 333 327 323 324 316 308 303 295 284 275 264 259 255 244
353 128 212 253 275 261 214 229 3 358 336 301 265 262 263 257 263 272 282 288 292 299 305 306 308 318 326 329 333 333 334 336 335 334 338 336 332 330 323 320 315 307 300 291 280 270 265 256 248
170 190 228 255 289 296 307 104 65 334 325 310 300 281 264 255 259 271 282 287 285 284 287 295 302 311 322 327 330 329 333 334 333 337 339 335 334 332 328 325 322 317 307 299 287 277 268 260 253
259 243 230 261 215 266 288 90 117 273 296 291 286 275 253 248 253 263 274 281 278 282 292 297 305 313 320 323 325 328 330 333 334 340 339 337 338 336 332 332 329 325 316 305 294 286 279 272 261